"read_dt","SO2 (ppb)","flags","PMT voltage (V)","lamp voltage (V)","lamp intensity (Hz)","internal temp (C)","react chamber temp (C)","sample flow (l/min)","pres (mmHg)","SO2 bkg (ppb)","SO2 coefficient"
2014-02-10 00:00:00,3952E-2,5C000495,-0725,1371,6179,999.9,036.0,0.196,783.0,01.14,0.508
2014-02-10 00:01:00,3939E-2,5C000495,-0725,1371,6296,999.9,036.0,0.196,783.0,01.14,0.508
2014-02-10 00:02:00,3980E-2,5C000495,-0725,1371,6213,999.9,036.1,0.196,783.0,01.14,0.508
2014-02-10 00:03:00,3939E-2,5C000495,-0725,1371,6138,999.9,036.0,0.196,783.0,01.14,0.508
2014-02-10 00:04:00,3914E-2,5C000495,-0725,1371,6194,999.9,036.1,0.196,783.0,01.14,0.508
2014-02-10 00:05:00,3937E-2,5C000495,-0725,1371,6062,999.9,036.0,0.196,783.1,01.14,0.508
2014-02-10 00:06:00,3988E-2,5C000495,-0725,1371,6176,999.9,036.0,0.196,783.1,01.14,0.508
2014-02-10 00:07:00,3973E-2,5C000495,-0725,1371,6048,999.9,036.0,0.196,783.1,01.14,0.508
2014-02-10 00:08:00,4025E-2,5C000495,-0725,1371,6176,999.9,036.0,0.196,783.1,01.14,0.508
2014-02-10 00:09:00,3918E-2,5C000495,-0725,1371,6199,999.9,036.0,0.196,783.1,01.14,0.508
2014-02-10 00:10:00,3900E-2,5C000495,-0725,1371,6216,999.9,036.0,0.196,783.1,01.14,0.508
2014-02-10 00:11:00,3905E-2,5C000495,-0725,1371,6138,999.9,036.0,0.196,783.1,01.14,0.508
2014-02-10 00:12:00,3940E-2,5C000495,-0725,1371,6159,999.9,036.0,0.196,783.1,01.14,0.508
2014-02-10 00:13:00,3908E-2,5C000495,-0725,1371,6225,999.9,036.1,0.196,783.1,01.14,0.508
2014-02-10 00:14:00,3959E-2,5C000495,-0725,1371,6265,999.9,036.0,0.196,783.1,01.14,0.508
2014-02-10 00:15:00,3911E-2,5C000495,-0725,1371,6255,999.9,036.1,0.196,783.1,01.14,0.508
2014-02-10 00:16:00,3937E-2,5C000495,-0725,1371,6232,999.9,036.0,0.196,783.1,01.14,0.508
2014-02-10 00:17:00,3953E-2,5C000495,-0725,1371,6160,999.9,036.0,0.196,783.1,01.14,0.508
2014-02-10 00:18:00,3934E-2,5C000495,-0725,1371,6146,999.9,036.0,0.196,783.1,01.14,0.508
2014-02-10 00:19:00,3973E-2,5C000495,-0725,1371,6090,999.9,036.0,0.196,783.1,01.14,0.508
2014-02-10 00:20:00,3951E-2,5C000495,-0725,1371,6719,999.9,036.0,0.196,783.1,01.14,0.508
2014-02-10 00:21:00,3860E-2,5C000495,-0725,1369,6785,999.9,036.0,0.196,783.1,01.14,0.508
2014-02-10 00:22:00,3800E-2,5C000495,-0725,1369,6765,999.9,036.0,0.196,783.2,01.14,0.508
2014-02-10 00:23:00,3785E-2,5C000495,-0725,1369,6728,999.9,036.0,0.196,783.2,01.14,0.508
2014-02-10 00:24:00,3805E-2,5C000495,-0725,1370,6513,999.9,036.0,0.196,783.2,01.14,0.508
2014-02-10 00:25:00,3776E-2,5C000495,-0725,1370,6635,999.9,036.0,0.196,783.2,01.14,0.508
2014-02-10 00:26:00,3711E-2,5C000495,-0725,1371,6570,999.9,036.0,0.196,783.2,01.14,0.508
2014-02-10 00:27:00,3799E-2,5C000495,-0725,1371,6480,999.9,036.0,0.196,783.2,01.14,0.508
2014-02-10 00:28:00,3810E-2,5C000495,-0725,1371,6417,999.9,036.0,0.196,783.2,01.14,0.508
2014-02-10 00:29:00,3752E-2,5C000495,-0725,1371,6461,999.9,036.0,0.196,783.2,01.14,0.508
2014-02-10 00:30:00,3803E-2,5C000495,-0725,1371,6395,999.9,036.0,0.196,783.2,01.14,0.508
2014-02-10 00:31:00,3756E-2,5C000495,-0725,1371,6411,999.9,036.0,0.196,783.2,01.14,0.508
2014-02-10 00:32:00,3773E-2,5C000495,-0725,1371,6486,999.9,036.0,0.196,783.2,01.14,0.508
2014-02-10 00:33:00,3741E-2,5C000495,-0725,1371,6461,999.9,036.1,0.196,783.2,01.14,0.508
2014-02-10 00:34:00,3769E-2,5C000495,-0725,1371,6406,999.9,036.0,0.196,783.3,01.14,0.508
2014-02-10 00:35:00,3768E-2,5C000495,-0725,1371,6397,999.9,036.0,0.196,783.3,01.14,0.508
2014-02-10 00:36:00,3730E-2,5C000495,-0725,1371,6359,999.9,036.0,0.196,783.3,01.14,0.508
2014-02-10 00:37:00,3763E-2,5C000495,-0725,1371,6320,999.9,036.0,0.196,783.3,01.14,0.508
2014-02-10 00:38:00,3738E-2,5C000495,-0725,1371,6413,999.9,036.0,0.196,783.3,01.14,0.508
2014-02-10 00:39:00,3726E-2,5C000495,-0725,1371,6401,999.9,036.0,0.196,783.3,01.14,0.508
2014-02-10 00:40:00,3750E-2,5C000495,-0725,1371,6311,999.9,036.0,0.196,783.3,01.14,0.508
2014-02-10 00:41:00,3737E-2,5C000495,-0725,1371,6277,999.9,036.0,0.196,783.3,01.14,0.508
2014-02-10 00:42:00,3755E-2,5C000495,-0725,1371,6373,999.9,036.0,0.196,783.3,01.14,0.508
2014-02-10 00:43:00,3760E-2,5C000495,-0725,1371,6415,999.9,036.1,0.196,783.3,01.14,0.508
2014-02-10 00:44:00,3761E-2,5C000495,-0725,1371,6303,999.9,036.0,0.196,783.3,01.14,0.508
2014-02-10 00:45:00,3731E-2,5C000495,-0725,1371,6344,999.9,036.0,0.196,783.4,01.14,0.508
2014-02-10 00:46:00,3776E-2,5C000495,-0725,1371,6348,999.9,036.0,0.196,783.3,01.14,0.508
2014-02-10 00:47:00,3789E-2,5C000495,-0725,1371,6338,999.9,036.0,0.196,783.3,01.14,0.508
2014-02-10 00:48:00,3712E-2,5C000495,-0725,1371,6337,999.9,036.0,0.196,783.3,01.14,0.508
2014-02-10 00:49:00,3773E-2,5C000495,-0725,1371,6224,999.9,036.0,0.196,783.3,01.14,0.508
2014-02-10 00:50:00,3792E-2,5C000495,-0725,1371,6275,999.9,036.0,0.196,783.3,01.14,0.508
2014-02-10 00:51:00,3760E-2,5C000495,-0725,1371,6261,999.9,036.0,0.196,783.4,01.14,0.508
2014-02-10 00:52:00,3740E-2,5C000495,-0725,1371,6203,999.9,036.0,0.196,783.4,01.14,0.508
2014-02-10 00:53:00,3750E-2,5C000495,-0725,1371,6172,999.9,036.0,0.196,783.4,01.14,0.508
2014-02-10 00:54:00,3740E-2,5C000495,-0725,1371,6189,999.9,036.0,0.196,783.4,01.14,0.508
2014-02-10 00:55:00,3749E-2,5C000495,-0725,1371,6178,999.9,036.0,0.196,783.4,01.14,0.508
2014-02-10 00:56:00,3723E-2,5C000495,-0725,1371,6153,999.9,036.0,0.196,783.4,01.14,0.508
2014-02-10 00:57:00,3682E-2,5C000495,-0725,1371,6028,999.9,036.0,0.196,783.4,01.14,0.508
2014-02-10 00:58:00,3799E-2,5C000495,-0725,1371,6187,999.9,036.0,0.196,783.4,01.14,0.508
2014-02-10 00:59:00,3751E-2,5C000495,-0725,1371,6142,999.9,036.0,0.196,783.4,01.14,0.508
2014-02-10 01:00:00,3785E-2,5C000495,-0725,1371,6141,999.9,036.0,0.196,783.4,01.14,0.508
2014-02-10 01:01:00,3758E-2,5C000495,-0725,1371,6144,999.9,036.0,0.196,783.4,01.14,0.508
2014-02-10 01:02:00,3718E-2,5C000495,-0725,1371,6149,999.9,036.0,0.196,783.4,01.14,0.508
2014-02-10 01:03:00,3773E-2,5C000495,-0725,1371,6141,999.9,036.0,0.196,783.4,01.14,0.508
2014-02-10 01:04:00,3759E-2,5C000495,-0725,1371,6158,999.9,036.0,0.196,783.4,01.14,0.508
2014-02-10 01:05:00,3761E-2,5C000495,-0725,1371,6159,999.9,036.0,0.196,783.4,01.14,0.508
2014-02-10 01:06:00,3895E-2,5C000495,-0725,1371,6105,999.9,036.0,0.196,783.4,01.14,0.508
2014-02-10 01:07:00,3843E-2,5C000495,-0725,1371,6102,999.9,036.0,0.196,783.4,01.14,0.508
2014-02-10 01:08:00,3859E-2,5C000495,-0725,1371,6200,999.9,036.0,0.196,783.4,01.14,0.508
2014-02-10 01:09:00,3905E-2,5C000495,-0725,1371,6133,999.9,036.0,0.196,783.4,01.14,0.508
2014-02-10 01:10:00,3853E-2,5C000495,-0725,1371,6068,999.9,036.1,0.196,783.4,01.14,0.508
2014-02-10 01:11:00,3877E-2,5C000495,-0725,1371,6092,999.9,036.0,0.196,783.4,01.14,0.508
2014-02-10 01:12:00,3868E-2,5C000495,-0725,1371,6118,999.9,036.0,0.196,783.4,01.14,0.508
2014-02-10 01:13:00,3873E-2,5C000495,-0725,1371,6065,999.9,036.0,0.196,783.4,01.14,0.508
2014-02-10 01:14:00,3886E-2,5C000495,-0725,1371,6057,999.9,036.0,0.196,783.4,01.14,0.508
2014-02-10 01:15:00,3975E-2,5C000495,-0725,1371,5999,999.9,036.0,0.196,783.5,01.14,0.508
2014-02-10 01:16:00,4122E-2,5C000495,-0725,1371,5919,999.9,036.0,0.196,783.4,01.14,0.508
2014-02-10 01:17:00,4070E-2,5C000495,-0725,1371,5789,999.9,036.0,0.196,783.5,01.14,0.508
2014-02-10 01:18:00,4067E-2,5C000495,-0725,1371,5894,999.9,036.0,0.196,783.5,01.14,0.508
2014-02-10 01:19:00,4043E-2,5C000495,-0725,1371,5846,999.9,036.0,0.196,783.5,01.14,0.508
2014-02-10 01:20:00,4042E-2,5C000495,-0725,1371,5745,999.9,036.0,0.196,783.5,01.14,0.508
2014-02-10 01:21:00,4029E-2,5C000495,-0725,1371,5801,999.9,036.0,0.196,783.5,01.14,0.508
2014-02-10 01:22:00,4006E-2,5C000495,-0725,1371,5799,999.9,036.0,0.196,783.5,01.14,0.508
2014-02-10 01:23:00,3979E-2,5C000495,-0725,1371,5796,999.9,036.0,0.196,783.5,01.14,0.508
2014-02-10 01:24:00,4008E-2,5C000495,-0725,1371,5774,999.9,036.0,0.196,783.5,01.14,0.508
2014-02-10 01:25:00,3997E-2,5C000495,-0725,1371,5788,999.9,036.0,0.196,783.5,01.14,0.508
2014-02-10 01:26:00,4013E-2,5C000495,-0725,1371,5695,999.9,036.0,0.196,783.5,01.14,0.508
2014-02-10 01:27:00,4012E-2,5C000495,-0725,1371,5789,999.9,036.0,0.196,783.5,01.14,0.508
2014-02-10 01:28:00,3976E-2,5C000495,-0725,1371,5678,999.9,036.0,0.196,783.5,01.14,0.508
2014-02-10 01:29:00,3998E-2,5C000495,-0725,1371,5703,999.9,036.0,0.196,783.5,01.14,0.508
2014-02-10 01:30:00,4031E-2,5C000495,-0725,1371,5715,999.9,036.0,0.196,783.5,01.14,0.508
2014-02-10 01:31:00,3979E-2,5C000495,-0725,1371,5792,999.9,036.0,0.196,783.5,01.14,0.508
2014-02-10 01:32:00,4004E-2,5C000495,-0725,1371,5614,999.9,036.0,0.196,783.5,01.14,0.508
2014-02-10 01:33:00,4037E-2,5C000495,-0725,1371,5745,999.9,036.0,0.196,783.5,01.14,0.508
2014-02-10 01:34:00,3985E-2,5C000495,-0725,1371,5739,999.9,036.0,0.196,783.5,01.14,0.508
2014-02-10 01:35:00,4003E-2,5C000495,-0725,1371,5740,999.9,036.0,0.196,783.6,01.14,0.508
2014-02-10 01:36:00,4005E-2,5C000495,-0725,1371,5707,999.9,036.0,0.196,783.5,01.14,0.508
2014-02-10 01:37:00,4011E-2,5C000495,-0725,1371,5658,999.9,036.0,0.196,783.5,01.14,0.508
2014-02-10 01:38:00,4006E-2,5C000495,-0725,1371,5537,999.9,036.0,0.196,783.5,01.14,0.508
2014-02-10 01:39:00,3944E-2,5C000495,-0725,1371,5626,999.9,036.0,0.196,783.5,01.14,0.508
2014-02-10 01:40:00,4030E-2,5C000495,-0725,1371,5579,999.9,036.0,0.196,783.5,01.14,0.508
2014-02-10 01:41:00,3952E-2,5C000495,-0725,1371,5649,999.9,036.1,0.196,783.5,01.14,0.508
2014-02-10 01:42:00,3918E-2,5C000495,-0725,1371,5568,999.9,036.1,0.196,783.5,01.14,0.508
2014-02-10 01:43:00,3995E-2,5C000495,-0725,1371,5582,999.9,036.0,0.196,783.5,01.14,0.508
2014-02-10 01:44:00,3964E-2,5C000495,-0725,1371,5477,999.9,036.0,0.196,783.5,01.14,0.508
2014-02-10 01:45:00,3960E-2,5C000495,-0725,1371,5580,999.9,036.0,0.196,783.5,01.14,0.508
2014-02-10 01:46:00,3992E-2,5C000495,-0725,1371,5546,999.9,036.0,0.196,783.5,01.14,0.508
2014-02-10 01:47:00,4002E-2,5C000495,-0725,1371,5560,999.9,036.0,0.196,783.5,01.14,0.508
2014-02-10 01:48:00,3972E-2,5C000495,-0725,1371,5577,999.9,036.0,0.196,783.5,01.14,0.508
2014-02-10 01:49:00,3972E-2,5C000495,-0725,1371,5598,999.9,036.0,0.196,783.5,01.14,0.508
2014-02-10 01:50:00,4032E-2,5C000495,-0725,1371,5475,999.9,036.0,0.196,783.5,01.14,0.508
2014-02-10 01:51:00,3937E-2,5C000495,-0725,1371,5574,999.9,036.0,0.196,783.5,01.14,0.508
2014-02-10 01:52:00,3981E-2,5C000495,-0725,1371,5554,999.9,036.0,0.196,783.5,01.14,0.508
2014-02-10 01:53:00,3957E-2,5C000495,-0725,1371,5462,999.9,036.0,0.196,783.6,01.14,0.508
2014-02-10 01:54:00,3963E-2,5C000495,-0725,1371,5603,999.9,036.0,0.196,783.6,01.14,0.508
2014-02-10 01:55:00,4011E-2,5C000495,-0725,1371,5578,999.9,036.0,0.196,783.6,01.14,0.508
2014-02-10 01:56:00,3927E-2,5C000495,-0725,1371,5571,999.9,036.0,0.196,783.6,01.14,0.508
2014-02-10 01:57:00,3947E-2,5C000495,-0725,1371,5580,999.9,036.1,0.196,783.6,01.14,0.508
2014-02-10 01:58:00,3913E-2,5C000495,-0725,1371,5587,999.9,036.0,0.196,783.6,01.14,0.508
2014-02-10 01:59:00,3943E-2,5C000495,-0725,1371,5546,999.9,036.1,0.196,783.6,01.14,0.508
2014-02-10 02:00:00,3920E-2,5C000495,-0725,1371,5540,999.9,036.0,0.196,783.6,01.14,0.508
2014-02-10 02:01:00,3889E-2,5C000495,-0725,1371,5519,999.9,036.0,0.196,783.6,01.14,0.508
2014-02-10 02:02:00,3922E-2,5C000495,-0725,1371,5539,999.9,036.0,0.196,783.6,01.14,0.508
2014-02-10 02:03:00,3978E-2,5C000495,-0725,1371,5968,999.9,036.0,0.196,783.6,01.14,0.508
2014-02-10 02:04:00,3949E-2,5C000495,-0725,1371,5966,999.9,036.0,0.196,783.6,01.14,0.508
2014-02-10 02:05:00,4005E-2,5C000495,-0725,1371,5839,999.9,036.0,0.196,783.6,01.14,0.508
2014-02-10 02:06:00,4017E-2,5C000495,-0725,1371,5841,999.9,036.1,0.196,783.6,01.14,0.508
2014-02-10 02:07:00,3988E-2,5C000495,-0725,1371,5868,999.9,036.0,0.196,783.6,01.14,0.508
2014-02-10 02:08:00,3985E-2,5C000495,-0725,1371,5768,999.9,036.0,0.196,783.6,01.14,0.508
2014-02-10 02:09:00,3990E-2,5C000495,-0725,1371,5739,999.9,036.0,0.196,783.6,01.14,0.508
2014-02-10 02:10:00,3971E-2,5C000495,-0725,1371,5777,999.9,036.0,0.196,783.6,01.14,0.508
2014-02-10 02:11:00,3970E-2,5C000495,-0725,1371,5736,999.9,036.0,0.196,783.6,01.14,0.508
2014-02-10 02:12:00,3943E-2,5C000495,-0725,1371,5647,999.9,036.1,0.196,783.6,01.14,0.508
2014-02-10 02:13:00,3965E-2,5C000495,-0725,1371,5662,999.9,036.1,0.196,783.6,01.14,0.508
2014-02-10 02:14:00,3931E-2,5C000495,-0725,1336,8511,999.9,036.1,0.196,783.6,01.14,0.508
2014-02-10 02:15:00,3682E-2,5C000495,-0725,1250,8186,999.9,036.0,0.196,783.6,01.14,0.508
2014-02-10 02:16:00,3687E-2,5C000495,-0725,1249,7933,999.9,036.1,0.196,783.6,01.14,0.508
2014-02-10 02:17:00,3604E-2,5C000495,-0725,1262,7889,999.9,036.0,0.196,783.6,01.14,0.508
2014-02-10 02:18:00,3695E-2,5C000495,-0725,1275,7706,999.9,036.0,0.196,783.6,01.14,0.508
2014-02-10 02:19:00,3619E-2,5C000495,-0725,1286,7651,999.9,036.0,0.196,783.6,01.14,0.508
2014-02-10 02:20:00,3641E-2,5C000495,-0725,1293,7684,999.9,036.0,0.196,783.6,01.14,0.508
2014-02-10 02:21:00,3642E-2,5C000495,-0725,1299,7572,999.9,036.0,0.196,783.6,01.14,0.508
2014-02-10 02:22:00,3621E-2,5C000495,-0725,1304,7554,999.9,036.1,0.196,783.6,01.14,0.508
2014-02-10 02:23:00,3647E-2,5C000495,-0725,1310,7414,999.9,036.0,0.196,783.6,01.14,0.508
2014-02-10 02:24:00,3575E-2,5C000495,-0725,1315,7378,999.9,036.0,0.196,783.6,01.14,0.508
2014-02-10 02:25:00,3685E-2,5C000495,-0725,1318,7403,999.9,036.0,0.196,783.7,01.14,0.508
2014-02-10 02:26:00,3598E-2,5C000495,-0725,1322,7373,999.9,036.0,0.196,783.7,01.14,0.508
2014-02-10 02:27:00,3656E-2,5C000495,-0725,1326,7347,999.9,036.1,0.196,783.7,01.14,0.508
2014-02-10 02:28:00,3620E-2,5C000495,-0725,1329,7154,999.9,036.0,0.196,783.7,01.14,0.508
2014-02-10 02:29:00,3659E-2,5C000495,-0725,1330,7308,999.9,036.1,0.196,783.7,01.14,0.508
2014-02-10 02:30:00,3627E-2,5C000495,-0725,1333,7279,999.9,036.0,0.196,783.7,01.14,0.508
2014-02-10 02:31:00,3616E-2,5C000495,-0725,1334,7301,999.9,036.1,0.196,783.7,01.14,0.508
2014-02-10 02:32:00,3650E-2,5C000495,-0725,1333,7235,999.9,036.0,0.196,783.7,01.14,0.508
2014-02-10 02:33:00,3657E-2,5C000495,-0725,1334,7266,999.9,036.1,0.196,783.7,01.14,0.508
2014-02-10 02:34:00,3670E-2,5C000495,-0725,1337,7160,999.9,036.0,0.196,783.7,01.14,0.508
2014-02-10 02:35:00,3671E-2,5C000495,-0725,1333,7302,999.9,036.0,0.196,783.8,01.14,0.508
2014-02-10 02:36:00,3655E-2,5C000495,-0725,1333,7161,999.9,036.0,0.196,783.8,01.14,0.508
2014-02-10 02:37:00,3640E-2,5C000495,-0725,1330,7354,999.9,036.0,0.196,783.8,01.14,0.508
2014-02-10 02:38:00,3680E-2,5C000495,-0725,1333,7252,999.9,036.0,0.196,783.8,01.14,0.508
2014-02-10 02:39:00,3628E-2,5C000495,-0725,1335,7241,999.9,036.1,0.196,783.8,01.14,0.508
2014-02-10 02:40:00,3638E-2,5C000495,-0725,1337,7263,999.9,036.1,0.196,783.8,01.14,0.508
2014-02-10 02:41:00,3668E-2,5C000495,-0725,1340,7114,999.9,036.1,0.196,783.8,01.14,0.508
2014-02-10 02:42:00,3587E-2,5C000495,-0725,1341,7208,999.9,036.1,0.196,783.8,01.14,0.508
2014-02-10 02:43:00,3631E-2,5C000495,-0725,1342,7110,999.9,036.1,0.196,783.8,01.14,0.508
2014-02-10 02:44:00,3602E-2,5C000495,-0725,1344,7051,999.9,036.1,0.196,783.9,01.14,0.508
2014-02-10 02:45:00,3619E-2,5C000495,-0725,1345,7150,999.9,036.1,0.196,783.9,01.14,0.508
2014-02-10 02:46:00,3639E-2,5C000495,-0725,1347,7099,999.9,036.1,0.196,783.6,01.14,0.508
2014-02-10 02:47:00,3650E-2,5C000495,-0725,1348,7150,999.9,036.1,0.196,783.6,01.14,0.508
2014-02-10 02:48:00,3619E-2,5C000495,-0725,1349,6998,999.9,036.1,0.196,783.6,01.14,0.508
2014-02-10 02:49:00,3630E-2,5C000495,-0725,1350,7077,999.9,036.1,0.196,783.6,01.14,0.508
2014-02-10 02:50:00,3641E-2,5C000495,-0725,1351,7091,999.9,036.1,0.196,783.7,01.14,0.508
2014-02-10 02:51:00,3636E-2,5C000495,-0725,1352,7127,999.9,036.1,0.196,783.7,01.14,0.508
2014-02-10 02:52:00,3598E-2,5C000495,-0725,1354,7048,999.9,036.1,0.196,783.7,01.14,0.508
2014-02-10 02:53:00,3581E-2,5C000495,-0725,1355,7002,999.9,036.1,0.196,783.7,01.14,0.508
2014-02-10 02:54:00,3566E-2,5C000495,-0725,1355,7049,999.9,036.1,0.196,783.7,01.14,0.508
2014-02-10 02:55:00,3570E-2,5C000495,-0725,1357,7071,999.9,036.1,0.196,783.7,01.14,0.508
2014-02-10 02:56:00,3628E-2,5C000495,-0725,1360,6888,999.9,036.1,0.196,783.7,01.14,0.508
2014-02-10 02:57:00,3602E-2,5C000495,-0725,1362,6964,999.9,036.1,0.196,783.7,01.14,0.508
2014-02-10 02:58:00,3609E-2,5C000495,-0725,1363,6959,999.9,036.1,0.196,783.7,01.14,0.508
2014-02-10 02:59:00,3631E-2,5C000495,-0725,1364,6875,999.9,036.1,0.196,783.7,01.14,0.508
2014-02-10 03:00:00,3615E-2,5C000495,-0725,1365,6914,999.9,036.1,0.196,783.7,01.14,0.508
2014-02-10 03:01:00,3561E-2,5C000495,-0725,1366,6855,999.9,036.1,0.196,783.8,01.14,0.508
2014-02-10 03:02:00,3561E-2,5C000495,-0725,1365,6787,999.9,036.1,0.196,783.8,01.14,0.508
2014-02-10 03:03:00,3615E-2,5C000495,-0725,1366,6768,999.9,036.1,0.196,783.8,01.14,0.508
2014-02-10 03:04:00,3637E-2,5C000495,-0725,1366,6841,999.9,036.1,0.196,783.8,01.14,0.508
2014-02-10 03:05:00,3608E-2,5C000495,-0725,1367,6786,999.9,036.1,0.196,783.8,01.14,0.508
2014-02-10 03:06:00,3600E-2,5C000495,-0725,1367,6861,999.9,036.1,0.196,783.8,01.14,0.508
2014-02-10 03:07:00,3655E-2,5C000495,-0725,1368,6757,999.9,036.1,0.196,783.8,01.14,0.508
2014-02-10 03:08:00,3619E-2,5C000495,-0725,1368,6810,999.9,036.1,0.196,783.9,01.14,0.508
2014-02-10 03:09:00,3618E-2,5C000495,-0725,1368,6855,999.9,036.1,0.196,783.8,01.14,0.508
2014-02-10 03:10:00,3585E-2,5C000495,-0725,1368,6719,999.9,036.1,0.196,783.9,01.14,0.508
2014-02-10 03:11:00,3587E-2,5C000495,-0725,1368,6757,999.9,036.1,0.196,783.9,01.14,0.508
2014-02-10 03:12:00,3562E-2,5C000495,-0725,1368,6691,999.9,036.1,0.196,783.9,01.14,0.508
2014-02-10 03:13:00,3624E-2,5C000495,-0725,1368,6779,999.9,036.2,0.196,783.9,01.14,0.508
2014-02-10 03:14:00,3607E-2,5C000495,-0725,1369,6817,999.9,036.1,0.196,783.9,01.14,0.508
2014-02-10 03:15:00,3591E-2,5C000495,-0725,1369,6792,999.9,036.1,0.196,783.9,01.14,0.508
2014-02-10 03:16:00,3562E-2,5C000495,-0725,1368,6748,999.9,036.1,0.196,783.9,01.14,0.508
2014-02-10 03:17:00,3568E-2,5C000495,-0725,1369,6770,999.9,036.1,0.196,783.9,01.14,0.508
2014-02-10 03:18:00,3580E-2,5C000495,-0725,1369,6787,999.9,036.1,0.196,783.9,01.14,0.508
2014-02-10 03:19:00,3527E-2,5C000495,-0725,1369,6752,999.9,036.2,0.196,783.9,01.14,0.508
2014-02-10 03:20:00,3545E-2,5C000495,-0725,1369,6771,999.9,036.2,0.196,783.9,01.14,0.508
2014-02-10 03:21:00,3581E-2,5C000495,-0725,1369,6757,999.9,036.1,0.196,783.9,01.14,0.508
2014-02-10 03:22:00,3566E-2,5C000495,-0725,1370,6816,999.9,036.1,0.196,783.9,01.14,0.508
2014-02-10 03:23:00,3532E-2,5C000495,-0725,1369,6741,999.9,036.2,0.196,783.9,01.14,0.508
2014-02-10 03:24:00,3540E-2,5C000495,-0725,1370,6733,999.9,036.2,0.196,783.9,01.14,0.508
2014-02-10 03:25:00,3584E-2,5C000495,-0725,1370,6649,999.9,036.2,0.196,783.9,01.14,0.508
2014-02-10 03:26:00,3597E-2,5C000495,-0725,1370,6608,999.9,036.2,0.196,783.9,01.14,0.508
2014-02-10 03:27:00,3556E-2,5C000495,-0725,1371,6682,999.9,036.2,0.196,784.0,01.14,0.508
2014-02-10 03:28:00,3561E-2,5C000495,-0725,1371,6471,999.9,036.2,0.196,784.0,01.14,0.508
2014-02-10 03:29:00,3535E-2,5C000495,-0725,1371,6515,999.9,036.2,0.196,784.0,01.14,0.508
2014-02-10 03:30:00,3551E-2,5C000495,-0725,1371,6640,999.9,036.2,0.196,784.0,01.14,0.508
2014-02-10 03:31:00,3589E-2,5C000495,-0725,1371,6616,999.9,036.1,0.196,784.0,01.14,0.508
2014-02-10 03:32:00,3560E-2,5C000495,-0725,1371,6448,999.9,036.2,0.196,784.1,01.14,0.508
2014-02-10 03:33:00,3554E-2,5C000495,-0725,1371,6514,999.9,036.2,0.196,784.1,01.14,0.508
2014-02-10 03:34:00,3594E-2,5C000495,-0725,1371,6588,999.9,036.2,0.196,784.1,01.14,0.508
2014-02-10 03:35:00,3557E-2,5C000495,-0725,1371,6567,999.9,036.2,0.196,784.1,01.14,0.508
2014-02-10 03:36:00,3574E-2,5C000495,-0725,1371,6456,999.9,036.2,0.196,784.1,01.14,0.508
2014-02-10 03:37:00,3533E-2,5C000495,-0725,1371,6536,999.9,036.2,0.196,784.1,01.14,0.508
2014-02-10 03:38:00,3557E-2,5C000495,-0725,1371,6496,999.9,036.2,0.196,784.1,01.14,0.508
2014-02-10 03:39:00,3561E-2,5C000495,-0725,1371,6498,999.9,036.2,0.196,784.1,01.14,0.508
2014-02-10 03:40:00,3575E-2,5C000495,-0725,1371,6447,999.9,036.2,0.196,784.1,01.14,0.508
2014-02-10 03:41:00,3603E-2,5C000495,-0725,1371,6584,999.9,036.2,0.196,784.1,01.14,0.508
2014-02-10 03:42:00,3599E-2,5C000495,-0725,1371,6536,999.9,036.2,0.196,784.1,01.14,0.508
2014-02-10 03:43:00,3566E-2,5C000495,-0725,1371,6483,999.9,036.2,0.196,784.1,01.14,0.508
2014-02-10 03:44:00,3591E-2,5C000495,-0725,1371,6456,999.9,036.2,0.196,784.1,01.14,0.508
2014-02-10 03:45:00,3592E-2,5C000495,-0725,1371,6454,999.9,036.2,0.196,784.1,01.14,0.508
2014-02-10 03:46:00,3579E-2,5C000495,-0725,1371,6400,999.9,036.2,0.196,784.1,01.14,0.508
2014-02-10 03:47:00,3608E-2,5C000495,-0725,1371,6412,999.9,036.2,0.196,784.1,01.14,0.508
2014-02-10 03:48:00,3616E-2,5C000495,-0725,1371,6428,999.9,036.2,0.196,784.1,01.14,0.508
2014-02-10 03:49:00,3585E-2,5C000495,-0725,1371,6503,999.9,036.2,0.196,784.1,01.14,0.508
2014-02-10 03:50:00,3592E-2,5C000495,-0725,1371,6405,999.9,036.2,0.196,784.1,01.14,0.508
2014-02-10 03:51:00,3595E-2,5C000495,-0725,1371,6391,999.9,036.2,0.196,784.1,01.14,0.508
2014-02-10 03:52:00,3576E-2,5C000495,-0725,1371,6276,999.9,036.2,0.196,784.1,01.14,0.508
2014-02-10 03:53:00,3575E-2,5C000495,-0725,1371,6304,999.9,036.2,0.196,784.1,01.14,0.508
2014-02-10 03:54:00,3588E-2,5C000495,-0725,1371,6316,999.9,036.2,0.196,784.1,01.14,0.508
2014-02-10 03:55:00,3628E-2,5C000495,-0725,1371,6177,999.9,036.2,0.196,784.1,01.14,0.508
2014-02-10 03:56:00,3589E-2,5C000495,-0725,1371,6260,999.9,036.2,0.196,784.1,01.14,0.508
2014-02-10 03:57:00,3621E-2,5C000495,-0725,1371,6200,999.9,036.3,0.196,784.1,01.14,0.508
2014-02-10 03:58:00,3610E-2,5C000495,-0725,1371,6269,999.9,036.2,0.196,784.2,01.14,0.508
2014-02-10 03:59:00,3611E-2,5C000495,-0725,1371,6220,999.9,036.2,0.196,784.2,01.14,0.508
2014-02-10 04:00:00,3614E-2,5C000495,-0725,1371,6224,999.9,036.2,0.196,784.1,01.14,0.508
2014-02-10 04:01:00,3569E-2,5C000495,-0725,1371,6193,999.9,036.2,0.196,784.1,01.14,0.508
2014-02-10 04:02:00,3555E-2,5C000495,-0725,1371,6205,999.9,036.2,0.196,784.1,01.14,0.508
2014-02-10 04:03:00,3626E-2,5C000495,-0725,1371,6217,999.9,036.3,0.196,784.2,01.14,0.508
2014-02-10 04:04:00,3607E-2,5C000495,-0725,1371,6240,999.9,036.3,0.195,784.1,01.14,0.508
2014-02-10 04:05:00,3645E-2,5C000495,-0725,1371,6245,999.9,036.3,0.196,784.2,01.14,0.508
2014-02-10 04:06:00,3624E-2,5C000495,-0725,1371,6210,999.9,036.3,0.196,784.1,01.14,0.508
2014-02-10 04:07:00,3629E-2,5C000495,-0725,1371,6174,999.9,036.3,0.195,784.2,01.14,0.508
2014-02-10 04:08:00,3642E-2,5C000495,-0725,1371,6242,999.9,036.3,0.196,784.1,01.14,0.508
2014-02-10 04:09:00,3651E-2,5C000495,-0725,1371,6235,999.9,036.3,0.195,784.1,01.14,0.508
2014-02-10 04:10:00,3634E-2,5C000495,-0725,1371,6227,999.9,036.3,0.195,784.2,01.14,0.508
2014-02-10 04:11:00,3548E-2,5C000495,-0725,1371,6158,999.9,036.3,0.195,784.1,01.14,0.508
2014-02-10 04:12:00,3573E-2,5C000495,-0725,1371,6079,999.9,036.3,0.195,784.2,01.14,0.508
2014-02-10 04:13:00,3573E-2,5C000495,-0725,1371,6221,999.9,036.3,0.195,784.2,01.14,0.508
2014-02-10 04:14:00,3604E-2,5C000495,-0725,1371,6291,999.9,036.3,0.195,784.1,01.14,0.508
2014-02-10 04:15:00,3601E-2,5C000495,-0725,1371,6195,999.9,036.3,0.195,784.1,01.14,0.508
2014-02-10 04:16:00,3599E-2,5C000495,-0725,1371,6224,999.9,036.3,0.195,784.1,01.14,0.508
2014-02-10 04:17:00,3638E-2,5C000495,-0725,1371,6203,999.9,036.3,0.195,784.1,01.14,0.508
2014-02-10 04:18:00,3615E-2,5C000495,-0725,1371,6260,999.9,036.3,0.195,784.2,01.14,0.508
2014-02-10 04:19:00,3610E-2,5C000495,-0725,1371,6207,999.9,036.3,0.195,784.2,01.14,0.508
2014-02-10 04:20:00,3590E-2,5C000495,-0725,1371,6194,999.9,036.3,0.195,784.2,01.14,0.508
2014-02-10 04:21:00,3590E-2,5C000495,-0725,1371,6217,999.9,036.3,0.195,784.2,01.14,0.508
2014-02-10 04:22:00,3609E-2,5C000495,-0725,1371,6173,999.9,036.3,0.195,784.2,01.14,0.508
2014-02-10 04:23:00,3628E-2,5C000495,-0725,1371,6224,999.9,036.3,0.195,784.2,01.14,0.508